Location: Saratoga Springs
(43.0831°N, 73.7850°W)
Time: 05:51:10
(UTC-04:00)

Vanguard 2 - Pass Details

Date: 24 April 2024
Orbit: 553 x 2914 km, 32.9° (Epoch: 17 May)

Event Time Altitude Azimuth Distance (km) Brightness Sun altitude
Rises 04:03:01 0° 260° (W) 5,926 - -19.1°
Reaches altitude 10° 04:06:37 10° 257° (WSW) 5,154 - -18.6°
Exits shadow 04:09:10 18° 254° (WSW) 4,644 10.9 -18.2°
Maximum altitude 04:22:18 59° 184° (S) 3,215 10.4 -16.3°
Drops below altitude 10° 04:39:00 10° 111° (ESE) 5,445 12.3 -13.8°
Sets 04:42:56 0° 108° (ESE) 6,265 12.8 -13.2°
